OAL114 LBSF-LGAV

Flight info

Callsign OAL114
Flight time 1h 2m
Altitude 34000
Route OMENO NIKTI UY505 PEREN UV652 SKP UM749 ROPOX
Aircraft B738/M-VGDW/C

Departure

Time 2026-05-06 10:18
Airport Sofia Airport (LBSF)

Arrival

Time 2026-05-06 11:20
Airport Athens Eleftherios Venizelos International Airport (LGAV)
Time Latitude Longitude Altitude Speed Heading
2026-05-06 10:06 42.69316 23.40358 1750 ft 0 kts 199°
2026-05-06 10:08 42.69317 23.40358 1750 ft 1 kts 199°
2026-05-06 10:09 42.69329 23.40364 1750 ft 2 kts 199°
2026-05-06 10:09 42.69346 23.40372 1750 ft 3 kts 199°
2026-05-06 10:09 42.69360 23.40378 1750 ft 0 kts 198°
2026-05-06 10:11 42.69352 23.40375 1750 ft 4 kts 198°
2026-05-06 10:11 42.69330 23.40403 1750 ft 7 kts 127°
2026-05-06 10:12 42.69275 23.40429 1750 ft 10 kts 191°
2026-05-06 10:12 42.69196 23.40405 1750 ft 13 kts 192°
2026-05-06 10:12 42.69126 23.40468 1750 ft 14 kts 114°
2026-05-06 10:12 42.69090 23.40601 1750 ft 16 kts 108°
2026-05-06 10:13 42.69057 23.40744 1750 ft 16 kts 107°
2026-05-06 10:13 42.69033 23.40889 1750 ft 15 kts 92°
2026-05-06 10:13 42.69050 23.41027 1750 ft 14 kts 77°
2026-05-06 10:13 42.69071 23.41155 1750 ft 14 kts 77°
2026-05-06 10:14 42.69093 23.41286 1750 ft 15 kts 77°
2026-05-06 10:14 42.69118 23.41428 1750 ft 15 kts 73°
2026-05-06 10:14 42.69148 23.41562 1750 ft 14 kts 72°
2026-05-06 10:14 42.69182 23.41686 1750 ft 14 kts 67°
2026-05-06 10:15 42.69217 23.41810 1750 ft 15 kts 73°
2026-05-06 10:15 42.69248 23.41948 1750 ft 16 kts 73°
2026-05-06 10:15 42.69280 23.42088 1750 ft 15 kts 73°
2026-05-06 10:15 42.69309 23.42219 1750 ft 14 kts 73°
2026-05-06 10:16 42.69337 23.42343 1750 ft 13 kts 73°
2026-05-06 10:16 42.69363 23.42458 1750 ft 12 kts 66°
2026-05-06 10:16 42.69432 23.42497 1750 ft 10 kts
2026-05-06 10:16 42.69471 23.42439 1750 ft 9 kts 279°
2026-05-06 10:17 42.69477 23.42357 1750 ft 9 kts 275°
2026-05-06 10:17 42.69487 23.42212 1750 ft 34 kts 275°
2026-05-06 10:17 42.69531 23.41592 1750 ft 97 kts 275°
2026-05-06 10:17 42.69603 23.40432 1750 ft 151 kts 275°
2026-05-06 10:18 42.69715 23.38869 2088 ft 170 kts 276°
2026-05-06 10:18 42.69890 23.37276 2788 ft 175 kts 288°
2026-05-06 10:18 42.70588 23.35932 3430 ft 178 kts 324°
2026-05-06 10:18 42.71763 23.35298 3906 ft 191 kts 349°
2026-05-06 10:19 42.73157 23.35062 4200 ft 213 kts 352°
2026-05-06 10:19 42.74702 23.34785 4450 ft 234 kts 352°
2026-05-06 10:19 42.76389 23.34490 4740 ft 254 kts 353°
2026-05-06 10:19 42.78198 23.34174 5199 ft 269 kts 353°
2026-05-06 10:20 42.80081 23.33845 5894 ft 275 kts 353°
2026-05-06 10:20 42.81990 23.33512 6647 ft 278 kts 353°
2026-05-06 10:20 42.83930 23.33174 7371 ft 283 kts 352°
2026-05-06 10:20 42.85893 23.32902 8106 ft 286 kts
2026-05-06 10:21 42.87844 23.33450 8808 ft 290 kts 24°
2026-05-06 10:21 42.89495 23.35032 9514 ft 293 kts 47°
2026-05-06 10:21 42.90558 23.37351 10216 ft 295 kts 70°
2026-05-06 10:21 42.90772 23.40133 10808 ft 301 kts 99°
2026-05-06 10:22 42.89967 23.42817 11114 ft 317 kts 127°
2026-05-06 10:22 42.88245 23.44781 11375 ft 333 kts 154°
2026-05-06 10:22 42.86000 23.45830 11720 ft 346 kts 166°
2026-05-06 10:22 42.83655 23.46727 12293 ft 353 kts 162°
2026-05-06 10:23 42.81341 23.47929 12923 ft 358 kts 157°
2026-05-06 10:23 42.79063 23.49369 13569 ft 363 kts 154°
2026-05-06 10:23 42.76771 23.50866 14222 ft 367 kts 155°
2026-05-06 10:23 42.74468 23.52338 14855 ft 372 kts 155°
2026-05-06 10:24 42.72105 23.53840 15496 ft 377 kts 156°
2026-05-06 10:24 42.69691 23.55292 16132 ft 381 kts 157°
2026-05-06 10:24 42.67239 23.56741 16730 ft 386 kts 157°
2026-05-06 10:24 42.64758 23.58214 17325 ft 391 kts 156°
2026-05-06 10:25 42.62246 23.59709 17905 ft 395 kts 156°
2026-05-06 10:25 42.59718 23.61215 18473 ft 399 kts 156°
2026-05-06 10:25 42.57160 23.62739 19027 ft 404 kts 156°
2026-05-06 10:25 42.54505 23.64042 19556 ft 407 kts 168°
2026-05-06 10:26 42.51679 23.64344 20084 ft 409 kts 185°
2026-05-06 10:26 42.48900 23.63547 20609 ft 409 kts 201°
2026-05-06 10:26 42.46331 23.62002 21123 ft 410 kts 210°
2026-05-06 10:26 42.43856 23.60044 21634 ft 412 kts 214°
2026-05-06 10:27 42.41437 23.57920 22127 ft 415 kts 215°
2026-05-06 10:27 42.38986 23.55817 22612 ft 419 kts 214°
2026-05-06 10:27 42.36496 23.53736 23087 ft 422 kts 214°
2026-05-06 10:27 42.33957 23.51695 23537 ft 427 kts 210°
2026-05-06 10:28 42.31124 23.50356 23977 ft 435 kts 193°
2026-05-06 10:28 42.28127 23.50095 24386 ft 443 kts 178°
2026-05-06 10:28 42.25095 23.50934 24773 ft 450 kts 162°
2026-05-06 10:28 42.22288 23.52837 25157 ft 455 kts 147°
2026-05-06 10:29 42.19772 23.55444 25532 ft 458 kts 141°
2026-05-06 10:29 42.17275 23.58145 25900 ft 462 kts 142°
2026-05-06 10:29 42.14688 23.60760 26257 ft 465 kts 144°
2026-05-06 10:29 42.12022 23.63264 26612 ft 468 kts 146°
2026-05-06 10:30 42.09285 23.65681 26954 ft 471 kts 148°
2026-05-06 10:30 42.06510 23.68049 27289 ft 474 kts 148°
2026-05-06 10:30 42.03744 23.70406 27613 ft 477 kts 148°
2026-05-06 10:30 42.00927 23.72808 27913 ft 480 kts 148°
2026-05-06 10:31 41.98109 23.75241 28216 ft 483 kts 148°
2026-05-06 10:31 41.95260 23.77692 28517 ft 486 kts 148°
2026-05-06 10:31 41.92398 23.80146 28807 ft 489 kts 148°
2026-05-06 10:31 41.89521 23.82605 29088 ft 492 kts 148°
2026-05-06 10:32 41.86659 23.85046 29369 ft 494 kts 148°
2026-05-06 10:32 41.83746 23.87527 29639 ft 497 kts 148°
2026-05-06 10:32 41.80814 23.90033 29926 ft 498 kts 147°
2026-05-06 10:32 41.77896 23.92533 30290 ft 498 kts 148°
2026-05-06 10:33 41.74965 23.95024 30636 ft 498 kts 148°
2026-05-06 10:33 41.72029 23.97509 30957 ft 499 kts 148°
2026-05-06 10:33 41.69091 23.99991 31278 ft 499 kts 148°
2026-05-06 10:33 41.66183 24.02445 31602 ft 499 kts 148°
2026-05-06 10:34 41.63200 24.04959 31919 ft 500 kts 148°
2026-05-06 10:34 41.60261 24.07433 32227 ft 500 kts 148°
2026-05-06 10:34 41.57217 24.09558 32494 ft 500 kts 159°
2026-05-06 10:34 41.53890 24.10857 32788 ft 497 kts 171°
2026-05-06 10:35 41.50460 24.11272 33090 ft 493 kts 182°
2026-05-06 10:35 41.47043 24.11089 33411 ft 490 kts 188°
2026-05-06 10:35 41.43659 24.10578 33730 ft 488 kts 191°
2026-05-06 10:35 41.40301 24.09932 33984 ft 488 kts 192°
2026-05-06 10:36 41.33548 24.08729 34067 ft 492 kts 191°
2026-05-06 10:36 41.26755 24.07576 34075 ft 489 kts 191°
2026-05-06 10:37 41.20005 24.06458 34078 ft 488 kts 191°
2026-05-06 10:37 41.13266 24.05348 34079 ft 488 kts 191°
2026-05-06 10:38 41.06530 24.04242 34079 ft 488 kts 191°
2026-05-06 10:38 40.99824 24.03143 34080 ft 488 kts 191°
2026-05-06 10:39 40.93067 24.02055 34080 ft 488 kts 191°
2026-05-06 10:39 40.86318 24.00972 34085 ft 488 kts 191°
2026-05-06 10:40 40.79578 23.99893 34085 ft 488 kts 191°
2026-05-06 10:40 40.72895 23.98844 34085 ft 485 kts 191°
2026-05-06 10:41 40.66190 23.97803 34086 ft 485 kts 191°
2026-05-06 10:41 40.59468 23.96757 34086 ft 486 kts 191°
2026-05-06 10:42 40.52824 23.95209 34087 ft 483 kts 196°
2026-05-06 10:42 40.46223 23.93449 34084 ft 484 kts 195°
2026-05-06 10:43 40.39597 23.91745 34084 ft 485 kts 195°
2026-05-06 10:44 40.29694 23.89242 34083 ft 485 kts 195°
2026-05-06 10:44 40.23072 23.87570 34083 ft 485 kts 195°
2026-05-06 10:45 40.16438 23.85897 34082 ft 486 kts 195°
2026-05-06 10:45 40.10862 23.84498 34081 ft 486 kts 195°
2026-05-06 10:46 40.04245 23.82843 34080 ft 486 kts 195°
2026-05-06 10:46 39.97599 23.81185 34079 ft 486 kts 195°
2026-05-06 10:47 39.90943 23.79527 34076 ft 485 kts 195°
2026-05-06 10:47 39.84358 23.77891 34071 ft 485 kts 195°
2026-05-06 10:48 39.77720 23.76245 34068 ft 485 kts 195°
2026-05-06 10:48 39.71090 23.74604 34066 ft 484 kts 195°
2026-05-06 10:49 39.64489 23.72973 34068 ft 483 kts 195°
2026-05-06 10:49 39.57917 23.71353 34066 ft 482 kts 195°
2026-05-06 10:50 39.51329 23.69731 34063 ft 481 kts 195°
2026-05-06 10:50 39.44750 23.68106 34060 ft 480 kts 195°
2026-05-06 10:51 39.38188 23.66498 34058 ft 479 kts 195°
2026-05-06 10:51 39.31643 23.64900 34056 ft 478 kts 195°
2026-05-06 10:52 39.25151 23.63317 34055 ft 477 kts 195°
2026-05-06 10:52 39.18567 23.62121 34054 ft 480 kts 187°
2026-05-06 10:53 39.11872 23.62407 34054 ft 483 kts 176°
2026-05-06 10:53 39.05192 23.63489 34055 ft 483 kts 176°
2026-05-06 10:54 38.98522 23.64480 34057 ft 482 kts 176°
2026-05-06 10:54 38.91860 23.65459 34060 ft 481 kts 176°
2026-05-06 10:55 38.85201 23.66440 33702 ft 482 kts 176°
2026-05-06 10:55 38.81878 23.66928 33142 ft 479 kts 176°
2026-05-06 10:55 38.78568 23.67414 32611 ft 476 kts 176°
2026-05-06 10:55 38.75284 23.67896 32122 ft 473 kts 176°
2026-05-06 10:56 38.72067 23.68368 31647 ft 470 kts 176°
2026-05-06 10:56 38.68832 23.68842 31173 ft 466 kts 176°
2026-05-06 10:56 38.65621 23.69311 30705 ft 463 kts 176°
2026-05-06 10:56 38.62427 23.69779 30240 ft 460 kts 176°
2026-05-06 10:57 38.59253 23.70245 29784 ft 457 kts 176°
2026-05-06 10:57 38.56100 23.70709 29331 ft 455 kts 176°
2026-05-06 10:57 38.52956 23.71171 28880 ft 452 kts 176°
2026-05-06 10:57 38.49840 23.71627 28432 ft 449 kts 176°
2026-05-06 10:58 38.46747 23.72082 27985 ft 446 kts 176°
2026-05-06 10:58 38.43675 23.72532 27537 ft 443 kts 176°
2026-05-06 10:58 38.40614 23.72978 27091 ft 441 kts 176°
2026-05-06 10:58 38.37575 23.73420 26647 ft 438 kts 176°
2026-05-06 10:59 38.34558 23.73858 26205 ft 436 kts 176°
2026-05-06 10:59 38.31552 23.74293 25761 ft 433 kts 176°
2026-05-06 10:59 38.28567 23.74726 25319 ft 431 kts 176°
2026-05-06 10:59 38.25632 23.75151 24884 ft 428 kts 176°
2026-05-06 11:00 38.22681 23.75578 24444 ft 426 kts 176°
2026-05-06 11:00 38.19756 23.76113 23998 ft 425 kts 169°
2026-05-06 11:00 38.16958 23.77336 23570 ft 425 kts 158°
2026-05-06 11:00 38.14313 23.78999 23113 ft 424 kts 153°
2026-05-06 11:01 38.11775 23.80890 22665 ft 422 kts 148°
2026-05-06 11:01 38.09324 23.82946 22222 ft 420 kts 146°
2026-05-06 11:01 38.06946 23.85075 21783 ft 418 kts 144°
2026-05-06 11:01 38.04583 23.87207 21347 ft 415 kts 145°
2026-05-06 11:02 38.02221 23.89312 20912 ft 413 kts 145°
2026-05-06 11:02 37.99872 23.91388 20480 ft 410 kts 146°
2026-05-06 11:02 37.97529 23.93448 20047 ft 408 kts 146°
2026-05-06 11:02 37.95203 23.95487 19619 ft 405 kts 146°
2026-05-06 11:03 37.92916 23.97488 19196 ft 403 kts 146°
2026-05-06 11:03 37.90611 23.99501 18768 ft 401 kts 146°
2026-05-06 11:03 37.88316 24.01508 18343 ft 398 kts 146°
2026-05-06 11:03 37.86048 24.03509 17918 ft 396 kts 146°
2026-05-06 11:04 37.83794 24.05487 17498 ft 393 kts 146°
2026-05-06 11:04 37.81549 24.07460 17078 ft 391 kts 146°
2026-05-06 11:04 37.79321 24.09420 16660 ft 388 kts 146°
2026-05-06 11:04 37.77107 24.11355 16246 ft 386 kts 146°
2026-05-06 11:05 37.74899 24.13275 15833 ft 383 kts 146°
2026-05-06 11:05 37.72783 24.15111 15428 ft 364 kts 146°
2026-05-06 11:05 37.70703 24.16914 15043 ft 362 kts 146°
2026-05-06 11:05 37.68625 24.18714 14653 ft 361 kts 146°
2026-05-06 11:06 37.66550 24.20508 14261 ft 359 kts 146°
2026-05-06 11:06 37.64494 24.22287 13872 ft 357 kts 146°
2026-05-06 11:06 37.62443 24.24059 13484 ft 356 kts 146°
2026-05-06 11:06 37.60407 24.25817 13100 ft 354 kts 145°
2026-05-06 11:07 37.58597 24.27830 12712 ft 350 kts 127°
2026-05-06 11:07 37.57568 24.30552 12377 ft 342 kts 100°
2026-05-06 11:07 37.57583 24.33485 12033 ft 331 kts 73°
2026-05-06 11:07 37.58611 24.36019 11647 ft 321 kts 46°
2026-05-06 11:08 37.60402 24.37548 11570 ft 308 kts 18°
2026-05-06 11:08 37.62494 24.37827 11243 ft 304 kts 349°
2026-05-06 11:08 37.64426 24.36807 10868 ft 302 kts 325°
2026-05-06 11:08 37.66009 24.35062 10500 ft 302 kts 315°
2026-05-06 11:09 37.67479 24.33178 10239 ft 300 kts 318°
2026-05-06 11:09 37.69197 24.31707 10204 ft 300 kts 333°
2026-05-06 11:09 37.71119 24.30811 10128 ft 296 kts 345°
2026-05-06 11:09 37.73109 24.30163 10042 ft 287 kts 345°
2026-05-06 11:10 37.74984 24.29557 9992 ft 276 kts 345°
2026-05-06 11:10 37.76852 24.28952 9614 ft 278 kts 345°
2026-05-06 11:10 37.78736 24.28340 9250 ft 280 kts 345°
2026-05-06 11:10 37.80632 24.27724 8926 ft 280 kts 346°
2026-05-06 11:11 37.82522 24.27117 8606 ft 280 kts 347°
2026-05-06 11:11 37.84443 24.26722 8288 ft 280 kts 354°
2026-05-06 11:11 37.86388 24.26520 7968 ft 280 kts 356°
2026-05-06 11:11 37.88305 24.26339 7653 ft 280 kts 355°
2026-05-06 11:12 37.90246 24.26144 7330 ft 276 kts 355°
2026-05-06 11:12 37.92123 24.25952 7023 ft 268 kts 354°
2026-05-06 11:12 37.93983 24.25750 6719 ft 268 kts 354°
2026-05-06 11:12 37.95837 24.25549 6479 ft 265 kts 354°
2026-05-06 11:13 37.97642 24.25352 6401 ft 255 kts 354°
2026-05-06 11:13 37.99379 24.25113 6321 ft 246 kts 348°
2026-05-06 11:13 38.01008 24.24500 6076 ft 244 kts 338°
2026-05-06 11:13 38.02549 24.23666 5808 ft 243 kts 335°
2026-05-06 11:14 38.04082 24.22777 5532 ft 242 kts 334°
2026-05-06 11:14 38.05605 24.21863 5250 ft 242 kts 331°
2026-05-06 11:14 38.07018 24.20691 4968 ft 242 kts 323°
2026-05-06 11:14 38.08331 24.19353 4685 ft 241 kts 319°
2026-05-06 11:15 38.09476 24.17808 4390 ft 240 kts 301°
2026-05-06 11:15 38.10047 24.15840 4128 ft 237 kts 281°
2026-05-06 11:15 38.10252 24.13780 3854 ft 234 kts 275°
2026-05-06 11:15 38.10370 24.11726 3559 ft 232 kts 272°
2026-05-06 11:16 38.10163 24.09745 3262 ft 228 kts 248°
2026-05-06 11:16 38.09283 24.08112 3152 ft 216 kts 226°
2026-05-06 11:16 38.08194 24.06890 3090 ft 202 kts 218°
2026-05-06 11:16 38.07091 24.05886 3045 ft 192 kts 213°
2026-05-06 11:17 38.05970 24.04961 2965 ft 192 kts 213°
2026-05-06 11:17 38.04880 24.03992 2783 ft 193 kts 215°
2026-05-06 11:17 38.03825 24.03009 2533 ft 182 kts 216°
2026-05-06 11:17 38.02834 24.02071 2282 ft 174 kts 216°
2026-05-06 11:18 38.01886 24.01170 2068 ft 165 kts 216°
2026-05-06 11:18 38.00991 24.00316 1842 ft 157 kts 216°
2026-05-06 11:18 38.00125 23.99490 1646 ft 152 kts 215°
2026-05-06 11:18 37.99283 23.98686 1452 ft 152 kts 214°
2026-05-06 11:19 37.98433 23.97876 1244 ft 154 kts 214°
2026-05-06 11:19 37.97575 23.97058 1036 ft 154 kts 214°
2026-05-06 11:19 37.96732 23.96254 832 ft 153 kts 214°
2026-05-06 11:19 37.95882 23.95430 629 ft 154 kts 216°
2026-05-06 11:20 37.95027 23.94608 420 ft 154 kts 213°
2026-05-06 11:20 37.94179 23.93806 320 ft 148 kts 214°
2026-05-06 11:20 37.93430 23.93111 317 ft 105 kts 218°
2026-05-06 11:20 37.93023 23.92724 316 ft 43 kts 217°
2026-05-06 11:21 37.92889 23.92596 316 ft 18 kts 213°
2026-05-06 11:21 37.92772 23.92543 316 ft 18 kts 192°
2026-05-06 11:21 37.92661 23.92519 316 ft 14 kts 182°
2026-05-06 11:21 37.92607 23.92592 316 ft 13 kts 68°
2026-05-06 11:22 37.92673 23.92667 316 ft 13 kts 36°
2026-05-06 11:22 37.92742 23.92733 316 ft 12 kts 37°
2026-05-06 11:22 37.92808 23.92796 316 ft 12 kts 37°
2026-05-06 11:22 37.92872 23.92857 316 ft 11 kts 37°
2026-05-06 11:23 37.92933 23.92915 316 ft 11 kts 37°
2026-05-06 11:23 37.92992 23.92971 316 ft 10 kts 37°
2026-05-06 11:23 37.93049 23.93025 316 ft 11 kts 37°
2026-05-06 11:23 37.93113 23.93086 316 ft 12 kts 37°
2026-05-06 11:24 37.93183 23.93153 316 ft 13 kts 37°
2026-05-06 11:24 37.93256 23.93223 316 ft 13 kts 37°
2026-05-06 11:24 37.93333 23.93296 316 ft 14 kts 37°
2026-05-06 11:24 37.93415 23.93373 316 ft 15 kts 37°
2026-05-06 11:25 37.93501 23.93455 316 ft 16 kts 36°
2026-05-06 11:25 37.93591 23.93539 316 ft 16 kts 37°
2026-05-06 11:25 37.93685 23.93628 316 ft 17 kts 37°
2026-05-06 11:25 37.93776 23.93714 316 ft 17 kts 37°
2026-05-06 11:26 37.93871 23.93805 316 ft 17 kts 37°
2026-05-06 11:26 37.93968 23.93897 316 ft 18 kts 37°
2026-05-06 11:26 37.94068 23.93993 316 ft 18 kts 37°
2026-05-06 11:26 37.94170 23.94090 316 ft 17 kts 37°
2026-05-06 11:27 37.94265 23.94181 316 ft 17 kts 37°
2026-05-06 11:27 37.94364 23.94274 316 ft 18 kts 36°
2026-05-06 11:27 37.94463 23.94368 316 ft 18 kts 37°
2026-05-06 11:27 37.94566 23.94465 316 ft 18 kts 36°
2026-05-06 11:28 37.94660 23.94553 316 ft 17 kts 37°
2026-05-06 11:28 37.94661 23.94668 316 ft 15 kts 129°
2026-05-06 11:28 37.94600 23.94767 316 ft 14 kts 126°
2026-05-06 11:28 37.94545 23.94861 316 ft 13 kts 127°
2026-05-06 11:29 37.94492 23.94950 316 ft 12 kts 127°
2026-05-06 11:29 37.94441 23.95036 316 ft 12 kts 127°
2026-05-06 11:29 37.94392 23.95118 316 ft 11 kts 127°
2026-05-06 11:29 37.94345 23.95197 316 ft 11 kts 127°
2026-05-06 11:30 37.94297 23.95277 316 ft 12 kts 127°
2026-05-06 11:30 37.94247 23.95362 316 ft 12 kts 127°
2026-05-06 11:30 37.94194 23.95452 316 ft 13 kts 127°
2026-05-06 11:30 37.94139 23.95542 316 ft 13 kts 138°
2026-05-06 11:31 37.94055 23.95523 316 ft 14 kts 215°
2026-05-06 11:31 37.93973 23.95445 316 ft 15 kts 217°
2026-05-06 11:31 37.93899 23.95357 316 ft 15 kts 243°
2026-05-06 11:31 37.93874 23.95276 316 ft 14 kts 250°
2026-05-06 11:32 37.93830 23.95190 316 ft 12 kts 215°
2026-05-06 11:32 37.93795 23.95132 316 ft 8 kts 287°
2026-05-06 11:32 37.93826 23.95078 316 ft 7 kts 307°
2026-05-06 11:32 37.93835 23.95062 316 ft 0 kts 307°